Seven Seas Mariner — C6VV8 — position and weather

sailwx.info

Track history (hours):
 
Tides and Currents Weather Stations Pressure Air Temp Water Temp Dewpoint Dewpoint Depression Visibility Wind Speed Wind Dir Waves Ship Positions

Seven Seas Mariner

Last reported at 2019-Sep-20 13:33 UTC. Time now 2019-Sep-22 00:01 UTC.
Position N 55°10' W 131°12'.

Length 216 m; draft 7.2 m.

Type: Passenger vessel. MMSI: 311622000.

Date/timePositionNaut miles runAvg speedWind from/ knotsBaromVisibWave heightAir tempDewpointWater temp
2019-Sep-20 13:33N 55°10' W 131°12'112.8
2019-Sep-20 13:30N 55°10' W 131°11'1811.7
2019-Sep-20 12:00N 54°53' W 131°04'612.3
2019-Sep-20 11:29N 54°46' W 131°06'712.6
2019-Sep-20 10:58N 54°41' W 131°12'612.7
2019-Sep-20 10:30N 54°36' W 131°16'713.4
2019-Sep-20 10:00N 54°29' W 131°12'713.8
2019-Sep-20 09:30N 54°23' W 131°06'713.5
2019-Sep-20 09:00N 54°17' W 131°02'713.2
2019-Sep-20 08:30N 54°10' W 131°02'713.2
2019-Sep-20 08:00N 54°04' W 131°02'713.3
2019-Sep-20 07:30N 53°57' W 131°01'612.9
2019-Sep-20 07:00N 53°51' W 130°58'713.8
2019-Sep-20 06:30N 53°44' W 130°55'815.8
2019-Sep-20 06:00N 53°37' W 130°52'815.7
2019-Sep-20 05:30N 53°29' W 130°49'815.9
2019-Sep-20 04:59N 53°21' W 130°47'915.7
2019-Sep-20 04:25N 53°12' W 130°43'4215.1
2019-Sep-20 01:37N 52°32' W 130°19'215.1
2019-Sep-20 01:28N 52°30' W 130°18'715.1
2019-Sep-20 01:00N 52°23' W 130°14'915.4
2019-Sep-20 00:25N 52°15' W 130°09'2215.3
2019-Sep-19 23:00N 51°55' W 129°56'815.7
2019-Sep-19 22:30N 51°48' W 129°50'815.8
2019-Sep-19 22:00N 51°41' W 129°43'815.9
2019-Sep-19 21:30N 51°35' W 129°36'815.9
2019-Sep-19 21:00N 51°28' W 129°28'815.5
2019-Sep-19 20:30N 51°24' W 129°18'816.1
2019-Sep-19 20:00N 51°21' W 129°06'815.6
2019-Sep-19 19:30N 51°18' W 128°55'815.3
2019-Sep-19 19:00N 51°14' W 128°44'815.7
2019-Sep-19 18:30N 51°11' W 128°32'815.8
2019-Sep-19 18:00N 51°08' W 128°21'815.7
2019-Sep-19 17:30N 51°05' W 128°09'815.6
2019-Sep-19 17:00N 51°02' W 127°58'815.3
2019-Sep-19 16:31N 50°59' W 127°47'815.4
2019-Sep-19 16:00N 50°54' W 127°37'1019.2
2019-Sep-19 15:30N 50°49' W 127°24'1618.9
2019-Sep-19 14:38N 50°43' W 127°00'218.3
2019-Sep-19 14:30N 50°42' W 126°57'6216.4
2019-Sep-19 10:46N 50°20' W 125°26'616.6
2019-Sep-19 10:23N 50°15' W 125°23'615.9
2019-Sep-19 10:00N 50°08' W 125°21'611.7
2019-Sep-19 09:30N 50°04' W 125°15'612.8
2019-Sep-19 09:00N 49°58' W 125°11'611.4
2019-Sep-19 08:31N 49°55' W 125°04'611.5
2019-Sep-19 08:00N 49°51' W 124°58'5 9.9
2019-Sep-19 07:30N 49°47' W 124°52'510.4
2019-Sep-19 07:00N 49°43' W 124°47'510.5
2019-Sep-19 06:30N 49°39' W 124°41'510.6
2019-Sep-19 06:00N 49°35' W 124°36'5 9.3
2019-Sep-19 05:30N 49°32' W 124°32'910.2
2019-Sep-19 04:37N 49°26' W 124°21'212.8
2019-Sep-19 04:30N 49°25' W 124°19'714.4
2019-Sep-19 04:00N 49°23' W 124°08'714.8
2019-Sep-19 03:30N 49°23' W 123°57'815.3
2019-Sep-19 03:00N 49°21' W 123°46'815.9
2019-Sep-19 02:30N 49°20' W 123°33'815.7
2019-Sep-19 02:00N 49°19' W 123°22'714.4
2019-Sep-19 01:30N 49°19' W 123°11'3 6.8
2019-Sep-19 01:00N 49°18' W 123°06'0 0.7
2019-Sep-19 00:29N 49°17' W 123°07'0 0.0
2019-Sep-18 23:59N 49°17' W 123°07'0 0.0
2019-Sep-18 23:29N 49°17' W 123°07'0 0.0
2019-Sep-18 22:59N 49°17' W 123°07'0 0.0
2019-Sep-18 22:29N 49°17' W 123°07'0 0.0
2019-Sep-18 21:59N 49°17' W 123°07'0 0.0
2019-Sep-18 21:29N 49°17' W 123°07'0 0.0
2019-Sep-18 20:59N 49°17' W 123°07'0 0.0
2019-Sep-18 20:29N 49°17' W 123°07'0 0.0
2019-Sep-18 19:59N 49°17' W 123°07'0 0.0
2019-Sep-18 19:29N 49°17' W 123°07'0 0.0
2019-Sep-18 18:59N 49°17' W 123°07'0 0.0
2019-Sep-18 18:29N 49°17' W 123°07'0 0.0
2019-Sep-18 17:59N 49°17' W 123°07'0 0.0
2019-Sep-18 17:29N 49°17' W 123°07'0 0.0
2019-Sep-18 16:59N 49°17' W 123°07'0 0.0
2019-Sep-18 16:29N 49°17' W 123°07'0 0.0
2019-Sep-18 15:59N 49°17' W 123°07'0 0.0
2019-Sep-18 15:29N 49°17' W 123°07'0 0.0
2019-Sep-18 14:59N 49°17' W 123°07'0 0.0
2019-Sep-18 14:29N 49°17' W 123°07'0 0.0
2019-Sep-18 13:59N 49°17' W 123°07'0 0.0
2019-Sep-18 13:29N 49°17' W 123°07'0 0.5
2019-Sep-18 13:00N 49°17' W 123°06'3 5.9
2019-Sep-18 12:30N 49°19' W 123°10'510.3
2019-Sep-18 12:00N 49°18' W 123°18'510.3
2019-Sep-18 11:30N 49°18' W 123°26'510.2
2019-Sep-18 11:00N 49°18' W 123°34'5 9.8
2019-Sep-18 10:30N 49°19' W 123°41'5 9.6
2019-Sep-18 10:00N 49°20' W 123°48'510.0
2019-Sep-18 09:30N 49°21' W 123°56'510.1
2019-Sep-18 09:00N 49°22' W 124°03'510.2
2019-Sep-18 08:30N 49°23' W 124°11'5 9.7
2019-Sep-18 08:00N 49°25' W 124°18'510.2
2019-Sep-18 07:30N 49°27' W 124°25'610.1
2019-Sep-18 06:57N 49°31' W 124°32'4 8.8
2019-Sep-18 06:30N 49°34' W 124°36'5 9.9
2019-Sep-18 05:59N 49°37' W 124°41'510.3
2019-Sep-18 05:30N 49°41' W 124°46'714.8
2019-Sep-18 05:00N 49°47' W 124°54'815.2
2019-Sep-18 04:30N 49°52' W 125°02'815.1
2019-Sep-18 03:59N 49°58' W 125°10'611.7
2019-Sep-18 03:30N 50°03' W 125°14'613.1
2019-Sep-18 03:00N 50°08' W 125°21'1216.1
2019-Sep-18 02:16N 50°19' W 125°25'8517.1
2019-Sep-17 21:17N 50°51' W 127°30'717.1
2019-Sep-17 20:51N 50°55' W 127°40'516.0
2019-Sep-17 20:31N 50°59' W 127°46'611.8
2019-Sep-17 20:00N 51°01' W 127°55'918.9
2019-Sep-17 19:30N 51°06' W 128°08'918.4
2019-Sep-17 19:01N 51°13' W 128°18'917.4
2019-Sep-17 18:31N 51°21' W 128°23'919.0
2019-Sep-17 18:01N 51°30' W 128°26'1019.1
2019-Sep-17 17:31N 51°39' W 128°29'1019.5
2019-Sep-17 17:00N 51°48' W 128°36'1019.1
2019-Sep-17 16:30N 51°55' W 128°46'1019.1
2019-Sep-17 16:01N 52°01' W 128°58'918.7
2019-Sep-17 15:31N 52°07' W 129°10'918.3
2019-Sep-17 15:01N 52°13' W 129°22'918.2
2019-Sep-17 14:31N 52°20' W 129°32'7915.8
2019-Sep-17 09:32N 53°23' W 130°47'015.0
2019-Sep-17 09:30N 53°24' W 130°48'714.6
2019-Sep-17 09:00N 53°31' W 130°50'815.0
2019-Sep-17 08:30N 53°38' W 130°53'815.2
2019-Sep-17 08:00N 53°46' W 130°56'917.3
2019-Sep-17 07:30N 53°54' W 130°59'918.4
2019-Sep-17 07:00N 54°03' W 131°01'918.9
2019-Sep-17 06:31N 54°13' W 131°02'918.4
2019-Sep-17 06:00N 54°22' W 131°05'1018.9
2019-Sep-17 05:29N 54°30' W 131°15'816.8
2019-Sep-17 04:59N 54°38' W 131°16'1019.7
2019-Sep-17 04:30N 54°46' W 131°07'1919.5
2019-Sep-17 03:31N 55°05' W 131°08'120.0
2019-Sep-17 03:30N 55°05' W 131°08'  
2019-Sep-14 12:47N 58°10' W 135°20'413.6
2019-Sep-14 12:29N 58°12' W 135°27'713.7
2019-Sep-14 12:00N 58°16' W 135°38'713.0
2019-Sep-14 11:30N 58°19' W 135°49'613.2
2019-Sep-14 11:00N 58°20' W 136°01'712.4
2019-Sep-14 10:28N 58°18' W 136°13'  
Track history (hours):
 
Tides and Currents Weather Stations Pressure Air Temp Water Temp Dewpoint Dewpoint Depression Visibility Wind Speed Wind Dir Waves Ship Positions

Seven Seas Mariner

Last reported at 2019-Sep-20 13:33 UTC. Time now 2019-Sep-22 00:01 UTC.
Position N 55°10' W 131°12'.

Length 216 m; draft 7.2 m.

Type: Passenger vessel. MMSI: 311622000.

Date/timePositionNaut miles runAvg speedWind from/ knotsBaromVisibWave heightAir tempDewpointWater temp
2019-Sep-20 13:33N 55°10' W 131°12'112.8
2019-Sep-20 13:30N 55°10' W 131°11'1811.7
2019-Sep-20 12:00N 54°53' W 131°04'612.3
2019-Sep-20 11:29N 54°46' W 131°06'712.6
2019-Sep-20 10:58N 54°41' W 131°12'612.7
2019-Sep-20 10:30N 54°36' W 131°16'713.4
2019-Sep-20 10:00N 54°29' W 131°12'713.8
2019-Sep-20 09:30N 54°23' W 131°06'713.5
2019-Sep-20 09:00N 54°17' W 131°02'713.2
2019-Sep-20 08:30N 54°10' W 131°02'713.2
2019-Sep-20 08:00N 54°04' W 131°02'713.3
2019-Sep-20 07:30N 53°57' W 131°01'612.9
2019-Sep-20 07:00N 53°51' W 130°58'713.8
2019-Sep-20 06:30N 53°44' W 130°55'815.8
2019-Sep-20 06:00N 53°37' W 130°52'815.7
2019-Sep-20 05:30N 53°29' W 130°49'815.9
2019-Sep-20 04:59N 53°21' W 130°47'915.7
2019-Sep-20 04:25N 53°12' W 130°43'4215.1
2019-Sep-20 01:37N 52°32' W 130°19'215.1
2019-Sep-20 01:28N 52°30' W 130°18'715.1
2019-Sep-20 01:00N 52°23' W 130°14'915.4
2019-Sep-20 00:25N 52°15' W 130°09'2215.3
2019-Sep-19 23:00N 51°55' W 129°56'815.7
2019-Sep-19 22:30N 51°48' W 129°50'815.8
2019-Sep-19 22:00N 51°41' W 129°43'815.9
2019-Sep-19 21:30N 51°35' W 129°36'815.9
2019-Sep-19 21:00N 51°28' W 129°28'815.5
2019-Sep-19 20:30N 51°24' W 129°18'816.1
2019-Sep-19 20:00N 51°21' W 129°06'815.6
2019-Sep-19 19:30N 51°18' W 128°55'815.3
2019-Sep-19 19:00N 51°14' W 128°44'815.7
2019-Sep-19 18:30N 51°11' W 128°32'815.8
2019-Sep-19 18:00N 51°08' W 128°21'815.7
2019-Sep-19 17:30N 51°05' W 128°09'815.6
2019-Sep-19 17:00N 51°02' W 127°58'815.3
2019-Sep-19 16:31N 50°59' W 127°47'815.4
2019-Sep-19 16:00N 50°54' W 127°37'1019.2
2019-Sep-19 15:30N 50°49' W 127°24'1618.9
2019-Sep-19 14:38N 50°43' W 127°00'218.3
2019-Sep-19 14:30N 50°42' W 126°57'6216.4
2019-Sep-19 10:46N 50°20' W 125°26'616.6
2019-Sep-19 10:23N 50°15' W 125°23'615.9
2019-Sep-19 10:00N 50°08' W 125°21'611.7
2019-Sep-19 09:30N 50°04' W 125°15'612.8
2019-Sep-19 09:00N 49°58' W 125°11'611.4
2019-Sep-19 08:31N 49°55' W 125°04'611.5
2019-Sep-19 08:00N 49°51' W 124°58'5 9.9
2019-Sep-19 07:30N 49°47' W 124°52'510.4
2019-Sep-19 07:00N 49°43' W 124°47'510.5
2019-Sep-19 06:30N 49°39' W 124°41'510.6
2019-Sep-19 06:00N 49°35' W 124°36'5 9.3
2019-Sep-19 05:30N 49°32' W 124°32'910.2
2019-Sep-19 04:37N 49°26' W 124°21'212.8
2019-Sep-19 04:30N 49°25' W 124°19'714.4
2019-Sep-19 04:00N 49°23' W 124°08'714.8
2019-Sep-19 03:30N 49°23' W 123°57'815.3
2019-Sep-19 03:00N 49°21' W 123°46'815.9
2019-Sep-19 02:30N 49°20' W 123°33'815.7
2019-Sep-19 02:00N 49°19' W 123°22'714.4
2019-Sep-19 01:30N 49°19' W 123°11'3 6.8
2019-Sep-19 01:00N 49°18' W 123°06'0 0.7
2019-Sep-19 00:29N 49°17' W 123°07'0 0.0
2019-Sep-18 23:59N 49°17' W 123°07'0 0.0
2019-Sep-18 23:29N 49°17' W 123°07'0 0.0
2019-Sep-18 22:59N 49°17' W 123°07'0 0.0
2019-Sep-18 22:29N 49°17' W 123°07'0 0.0
2019-Sep-18 21:59N 49°17' W 123°07'0 0.0
2019-Sep-18 21:29N 49°17' W 123°07'0 0.0
2019-Sep-18 20:59N 49°17' W 123°07'0 0.0
2019-Sep-18 20:29N 49°17' W 123°07'0 0.0
2019-Sep-18 19:59N 49°17' W 123°07'0 0.0
2019-Sep-18 19:29N 49°17' W 123°07'0 0.0
2019-Sep-18 18:59N 49°17' W 123°07'0 0.0
2019-Sep-18 18:29N 49°17' W 123°07'0 0.0
2019-Sep-18 17:59N 49°17' W 123°07'0 0.0
2019-Sep-18 17:29N 49°17' W 123°07'0 0.0
2019-Sep-18 16:59N 49°17' W 123°07'0 0.0
2019-Sep-18 16:29N 49°17' W 123°07'0 0.0
2019-Sep-18 15:59N 49°17' W 123°07'0 0.0
2019-Sep-18 15:29N 49°17' W 123°07'0 0.0
2019-Sep-18 14:59N 49°17' W 123°07'0 0.0
2019-Sep-18 14:29N 49°17' W 123°07'0 0.0
2019-Sep-18 13:59N 49°17' W 123°07'0 0.0
2019-Sep-18 13:29N 49°17' W 123°07'0 0.5
2019-Sep-18 13:00N 49°17' W 123°06'3 5.9
2019-Sep-18 12:30N 49°19' W 123°10'510.3
2019-Sep-18 12:00N 49°18' W 123°18'510.3
2019-Sep-18 11:30N 49°18' W 123°26'510.2
2019-Sep-18 11:00N 49°18' W 123°34'5 9.8
2019-Sep-18 10:30N 49°19' W 123°41'5 9.6
2019-Sep-18 10:00N 49°20' W 123°48'510.0
2019-Sep-18 09:30N 49°21' W 123°56'510.1
2019-Sep-18 09:00N 49°22' W 124°03'510.2
2019-Sep-18 08:30N 49°23' W 124°11'5 9.7
2019-Sep-18 08:00N 49°25' W 124°18'510.2
2019-Sep-18 07:30N 49°27' W 124°25'610.1
2019-Sep-18 06:57N 49°31' W 124°32'4 8.8
2019-Sep-18 06:30N 49°34' W 124°36'5 9.9
2019-Sep-18 05:59N 49°37' W 124°41'510.3
2019-Sep-18 05:30N 49°41' W 124°46'714.8
2019-Sep-18 05:00N 49°47' W 124°54'815.2
2019-Sep-18 04:30N 49°52' W 125°02'815.1
2019-Sep-18 03:59N 49°58' W 125°10'611.7
2019-Sep-18 03:30N 50°03' W 125°14'613.1
2019-Sep-18 03:00N 50°08' W 125°21'1216.1
2019-Sep-18 02:16N 50°19' W 125°25'8517.1
2019-Sep-17 21:17N 50°51' W 127°30'717.1
2019-Sep-17 20:51N 50°55' W 127°40'516.0
2019-Sep-17 20:31N 50°59' W 127°46'611.8
2019-Sep-17 20:00N 51°01' W 127°55'918.9
2019-Sep-17 19:30N 51°06' W 128°08'918.4
2019-Sep-17 19:01N 51°13' W 128°18'917.4
2019-Sep-17 18:31N 51°21' W 128°23'919.0
2019-Sep-17 18:01N 51°30' W 128°26'1019.1
2019-Sep-17 17:31N 51°39' W 128°29'1019.5
2019-Sep-17 17:00N 51°48' W 128°36'1019.1
2019-Sep-17 16:30N 51°55' W 128°46'1019.1
2019-Sep-17 16:01N 52°01' W 128°58'918.7
2019-Sep-17 15:31N 52°07' W 129°10'918.3
2019-Sep-17 15:01N 52°13' W 129°22'918.2
2019-Sep-17 14:31N 52°20' W 129°32'7915.8
2019-Sep-17 09:32N 53°23' W 130°47'015.0
2019-Sep-17 09:30N 53°24' W 130°48'714.6
2019-Sep-17 09:00N 53°31' W 130°50'815.0
2019-Sep-17 08:30N 53°38' W 130°53'815.2
2019-Sep-17 08:00N 53°46' W 130°56'917.3
2019-Sep-17 07:30N 53°54' W 130°59'918.4
2019-Sep-17 07:00N 54°03' W 131°01'918.9
2019-Sep-17 06:31N 54°13' W 131°02'918.4
2019-Sep-17 06:00N 54°22' W 131°05'1018.9
2019-Sep-17 05:29N 54°30' W 131°15'816.8
2019-Sep-17 04:59N 54°38' W 131°16'1019.7
2019-Sep-17 04:30N 54°46' W 131°07'1919.5
2019-Sep-17 03:31N 55°05' W 131°08'120.0
2019-Sep-17 03:30N 55°05' W 131°08'  
2019-Sep-14 12:47N 58°10' W 135°20'413.6
2019-Sep-14 12:29N 58°12' W 135°27'713.7
2019-Sep-14 12:00N 58°16' W 135°38'713.0
2019-Sep-14 11:30N 58°19' W 135°49'613.2
2019-Sep-14 11:00N 58°20' W 136°01'712.4
2019-Sep-14 10:28N 58°18' W 136°13'  

Dump ship's entire track history